الصفحة الرئيسية
METAR-TAF:

METAR-TAF

مطار :

Hughenden, أستراليا

دائرة عرض: 20-48-54S, خط طول: 144-13-30E, ارتفاع: 318 متر

مراقبة الطقس الحالي

تاريخ ووقت الإصدار 57 دقيقة قبل الساعة 19:00UTC
ريح 3 عقدة من الجنوب/الجنوب الشرقي
درجة الحرارة 17°درجة مئوية
الرطوبة 59%
ضغط 1014 hPa
الرؤية 10 كم أو أكثر

METAR: YHUG 171900Z AUTO 15003KT 9999 // NCD 17/09 Q1014

زمن: 05:57 (19:57 UTC)


TAF: مفقودة

أرصاد الطقس والتوقعات من أكثر من 4000 مطار (تقارير الطقس للمطار METAR والتنبؤ بالطقس بالمطارTAF).

المحطات المتاحة هي النقط الصفراء والحمراء على الخريطة.

حرك المؤشر فوق النقطة لمعرفة اسم المحطة.

ثم انقر لمعرفة أرصاد وتوقعات الطقس.

لتغيير الخارطة: اضغط على الأزرار الخضراء مع رمز الصليب الأسود للتكبير. على الزر الأخضر مع شرطة للتصغير، أو على الأسهم الخضراء للخرائط المجاورة.


METAR-TAF: